User: anonymous   Login
Location: Unspecified
(43.4680°N, 87.1740°E)
Time: 17:07:56
(UTC+00:00)
Language:

SL-14 DEB - Orbit

View from above orbital plane
View from above orbital plane
View from above satellite
View from above satellite

Ground track
Ground track

The orbit data is extracted from the following two-line orbital elements,

1 35525U 87068CU  21336.93913260  .00000100  00000-0  77899-4 0  9992
2 35525  82.5463 191.7460 0019936 203.0642 221.8643 13.82738383936171
Epoch (UTC): 02 December 2021 22:32:21
Eccentricity: 0.0019936
inclination: 82.5463°
perigee height: 939 km
apogee height: 969 km
right ascension of ascending node: 191.7460°
argument of perigee: 203.0642°
revolutions per day: 13.82738383
mean anomaly at epoch: 221.8643°
orbit number at epoch: 93617

The dashed part of the orbit path shows where the satellite is in the earth's shadow,  

DLR